Terminal Aerodrome Forecast
Issued by NWS Paducah, KY

Home | Current Version | Previous Version | Text Only | Print | Product List | Glossary On
Versions: 1 2 3 4 5 6 7 8 9 10 11 12 13 14 15 16 17 18 19 20 21 22 23 24 25 26 27 28 29 30 31 32 33 34 35 36 37 38
000
FTUS43 KPAH 211850 AAC
TAFPAH
TAF AMD
KPAH 211850Z 2119/2218 21014G22KT 6SM -SHRA OVC012
     FM220400 24008KT 3SM RA OVC005
     FM221200 01010KT P6SM OVC015=

USA.gov is the U.S. government's official web portal to all federal, state and local government web resources and services.